Wind_Speed
22 23 22 22 20 17 17 16 18 20 21 21 21 19 19 20 16 12 16 14 14 10 10 7 6 3 3
25 24 25 23 21 18 18 18 19 22 22 21 20 20 19 16 15 13 12 14 13 11 15 11 10 10 6
25 25 24 22 20 19 19 19 20 22 22 21 20 20 18 15 11 12 14 18 18 17 15 12 14 10 9
28 25 19 19 20 20 21 20 20 22 20 19 19 18 18 16 13 15 15 19 19 17 15 14 14 12 11
30 27 21 22 23 21 21 20 21 20 19 18 16 15 14 13 13 16 16 14 16 16 14 13 15 15 13
32 27 22 21 20 20 20 20 19 20 18 16 15 14 13 11 11 15 15 16 14 15 16 17 18 18 15
27 23 21 19 19 19 20 21 19 18 15 14 13 11 11 11 11 14 16 16 14 15 16 15 16 16 17
23 19 20 19 19 19 19 19 17 16 14 13 11 10 10 10 11 15 17 17 16 17 18 18 19 19 18
20 25 24 21 19 18 16 16 15 15 14 13 13 11 9 8 10 13 15 17 17 16 17 16 16 16 17
34 29 24 20 19 17 15 15 15 13 14 15 12 10 6 8 9 11 13 12 15 16 16 18 19 17 16
30 26 24 20 16 14 14 14 14 13 11 12 12 11 11 8 9 9 12 14 13 14 16 17 19 19 19
30 27 23 18 15 14 13 14 14 13 13 13 14 12 14 14 13 13 15 16 15 17 19 20 21 22 20
31 26 20 15 18 15 12 11 12 11 12 13 15 15 15 16 15 13 13 15 17 19 20 20 19 20 19
30 24 22 24 21 18 14 11 11 10 11 13 15 16 15 15 14 12 13 12 10 17 21 22 22 21 21
31 29 28 25 23 21 19 17 14 10 11 12 14 15 16 15 14 12 13 15 15 17 20 19 19 18 18
34 32 28 26 25 23 22 20 17 16 15 13 14 16 16 14 13 11 14 11 12 13 16 17 16 18 17
37 32 30 28 27 26 24 22 20 19 17 16 15 16 17 13 11 10 11 11 9 10 11 11 11 13 14
Wind_Direction
245 246 242 245 260 258 260 270 283 286 288 290 291 289 282 279 278 244 243 240 253 253 262 277 258 225 275
253 249 239 252 257 258 265 273 279 288 292 297 294 287 280 270 269 246 230 234 236 248 243 254 265 229 219
243 241 247 252 255 262 270 281 285 289 289 290 292 292 286 267 248 226 227 236 249 225 221 254 258 224 227
235 239 243 255 263 270 275 283 285 286 286 288 288 290 282 264 242 231 236 243 237 237 246 237 219 238 237
236 233 239 244 256 259 268 281 287 285 280 277 278 281 283 262 243 230 235 242 245 242 222 223 229 239 240
233 238 237 242 246 259 273 280 284 278 265 263 269 268 261 252 243 242 234 232 233 234 230 230 234 226 232
231 235 233 239 250 261 271 277 272 258 253 256 258 256 253 249 240 241 241 241 233 232 230 229 227 233 237
227 225 235 243 252 262 272 274 263 252 248 255 255 258 260 259 244 242 245 242 241 237 238 239 239 237 232
216 223 231 237 249 263 269 269 262 255 251 252 255 256 263 262 241 244 242 243 241 239 237 234 233 232 235
214 217 227 237 247 253 258 259 250 250 249 248 247 251 257 251 240 233 241 244 242 243 242 243 240 234 235
218 223 227 234 241 248 255 254 244 235 242 234 246 253 248 249 236 229 236 238 239 240 242 244 248 244 241
219 224 228 232 238 242 252 256 249 246 247 250 258 258 258 260 256 252 251 247 244 247 249 249 248 250 249
225 228 232 231 231 235 243 259 255 254 254 256 258 259 260 263 265 260 258 257 252 249 251 251 248 248 248
227 226 222 226 228 224 229 239 237 246 254 257 261 263 264 266 268 267 266 253 261 256 254 251 249 248 249
221 220 223 224 221 219 222 227 234 239 253 261 262 261 265 270 275 278 264 263 264 258 258 253 250 248 248
223 220 223 225 222 224 228 230 235 237 241 252 260 266 269 271 274 267 263 263 264 268 262 259 256 253 248
227 223 222 219 219 221 226 232 236 238 241 247 252 261 265 268 268 265 261 262 259 265 267 267 258 244 245
Height
1532 1532 1534 1535 1534 1533 1533 1531 1531 1531 1530 1528 1525 1523 1522 1522 1521 1521 1522 1525 1526 1527 1528 1528 1528 1530 1530
1527 1528 1529 1529 1530 1529 1529 1527 1524 1525 1523 1522 1520 1517 1516 1515 1516 1518 1520 1521 1521 1523 1524 1524 1524 1525 1526
1520 1523 1523 1524 1526 1526 1526 1523 1520 1519 1517 1516 1515 1514 1512 1511 1511 1512 1513 1515 1515 1517 1519 1521 1520 1521 1522
1514 1516 1515 1519 1522 1521 1523 1519 1516 1513 1511 1511 1510 1508 1507 1506 1506 1507 1508 1510 1510 1510 1513 1516 1516 1517 1520
1508 1509 1507 1512 1514 1516 1515 1514 1511 1509 1506 1505 1503 1503 1501 1501 1501 1502 1504 1505 1507 1508 1509 1511 1513 1513 1515
1501 1502 1501 1506 1506 1509 1509 1508 1505 1504 1503 1502 1500 1499 1498 1496 1497 1500 1500 1501 1502 1504 1506 1507 1509 1509 1513
1491 1495 1496 1500 1503 1503 1503 1501 1499 1499 1498 1497 1496 1495 1494 1493 1494 1498 1499 1499 1498 1500 1503 1504 1506 1506 1508
1485 1492 1495 1495 1498 1498 1497 1497 1496 1495 1495 1493 1494 1494 1492 1491 1491 1495 1497 1496 1495 1496 1498 1499 1500 1501 1504
1482 1486 1486 1487 1491 1492 1493 1493 1492 1492 1491 1490 1489 1490 1488 1486 1487 1492 1493 1493 1492 1493 1494 1495 1496 1496 1498
1474 1476 1478 1480 1483 1484 1486 1486 1485 1486 1485 1485 1485 1485 1483 1482 1484 1486 1488 1490 1490 1490 1491 1492 1492 1490 1493
1470 1472 1473 1475 1477 1479 1480 1480 1479 1478 1479 1479 1481 1482 1481 1480 1481 1482 1484 1484 1483 1484 1486 1489 1490 1487 1488
1463 1466 1467 1470 1474 1475 1477 1477 1476 1476 1477 1479 1479 1478 1478 1479 1478 1479 1479 1479 1478 1480 1482 1485 1485 1485 1481
1456 1459 1464 1467 1468 1469 1472 1474 1473 1473 1474 1475 1475 1474 1474 1475 1475 1475 1474 1475 1474 1474 1477 1480 1479 1480 1478
1450 1452 1454 1456 1459 1462 1465 1467 1466 1466 1468 1470 1473 1473 1471 1470 1469 1471 1469 1469 1469 1470 1472 1474 1474 1474 1474
1438 1442 1446 1449 1451 1452 1455 1460 1461 1460 1464 1465 1468 1468 1468 1468 1465 1466 1466 1465 1464 1466 1469 1469 1469 1469 1468
1430 1432 1435 1441 1445 1449 1451 1451 1452 1455 1457 1459 1461 1466 1465 1464 1461 1462 1461 1461 1462 1463 1464 1464 1464 1464 1463
1422 1424 1429 1434 1437 1439 1442 1446 1449 1451 1450 1453 1455 1458 1462 1459 1459 1460 1459 1458 1459 1460 1460 1459 1459 1459 1459